SCP
0 0 0 0 0 0 0 0 0 0 0 0 0 0 0 0 0 0 0 0 0 0
0 0 0 0 0 0 0 0 0 0 0 0 0 0 0 0 0 0 0 0 0 0
0 0 0 0 0 0 0 0 0 0 0 0 0 0 0 0 0 0 0 0 0 0
0 0 0 0 0 0 0 0 0 0 0 0 0 0 0 0 0 0 0 0 0 0
0 0 0 0 0 0 0 0 0 0 0 0 0 0 0 0 0 0 0 0 0 0
0 0 0 0 0 0 0 0 0 0 0 0 0 0 0 0 0 0 0 0 0 0
0 0 0 0 0 0 0 0 0 0 0 0 0 0 0 0 0 0 0 0 0 0
0 0 0 0 0 0 0 0 0 0 0 0 0 0 0 0 0 0 0 0 0 0
0 0 0 0 0 0 0 0 0 0 0 0 0 0 0 0 0 0 0 0 0 0
0 0 0 0 0 0 0 0 0 0 0 0 0 0 0 0 0 0 0 0 0 0
0 0 0 0 0 0 0 0 0 0 0 0 0 0 0 0 0 0 0 0 0 0
0 0 0 0 0 0 0 0 0 0 0 0 0 0 0 0 0 0 0 0 0 0
0 0 0 0 0 0 0 0 0 0 0 0 0 0 0 0 0 0 0 0 0 0
0 0 0 0 0 0 0 0 0 0 0 0 0 0 0 0 0 0 0 0 0 0
Wind_Speed_500mb
37 39 39 40 41 43 44 47 49 50 51 52 54 55 55 55 55 56 56 57 57 59
39 39 41 41 43 45 48 50 52 54 55 57 60 63 65 66 66 64 61 60 59 61
43 43 45 47 49 51 52 55 57 59 60 63 65 67 69 69 69 69 67 65 64 61
47 49 50 52 54 56 58 59 60 61 62 63 65 67 69 69 70 71 70 68 67 65
43 47 51 52 54 56 58 60 62 63 65 65 65 67 68 69 67 67 67 65 65 66
46 47 48 50 52 53 56 58 59 61 62 62 61 66 65 66 66 65 64 63 62 61
46 46 47 48 50 52 53 55 57 57 59 60 58 66 66 69 69 65 61 59 57 53
48 49 50 51 52 52 51 51 52 53 54 54 54 61 65 69 68 62 59 61 59 53
53 54 55 54 54 55 53 52 52 51 53 54 52 56 61 63 62 59 53 56 59 62
48 48 48 47 46 47 47 47 47 47 49 50 50 53 56 61 59 56 50 47 51 59
43 40 40 40 42 43 45 47 47 47 46 47 46 49 52 55 55 52 49 45 45 55
34 36 39 43 46 48 51 52 52 52 53 52 50 50 49 51 55 56 54 48 42 44
26 29 32 37 43 48 51 53 55 55 54 55 55 52 51 43 51 54 54 54 47 45
23 27 33 39 45 50 55 57 57 59 59 57 56 56 51 40 46 50 53 56 54 49
Wind_Direction_500mb
18 15 9 5 0 355 351 347 343 339 338 335 333 330 326 324 320 316 311 306 301 295
8 3 0 355 350 346 342 338 335 334 331 330 328 327 325 324 323 320 319 316 312 308
356 353 349 344 341 338 335 332 330 328 327 325 324 322 320 320 319 318 317 317 315 313
344 342 339 337 335 334 333 331 330 329 328 326 325 321 321 320 319 318 318 318 317 314
337 336 335 333 333 331 329 329 329 328 328 327 326 322 323 322 322 323 323 322 319 317
342 340 339 338 337 335 333 331 328 327 326 326 326 321 322 322 324 325 325 324 322 320
342 342 340 338 336 333 331 329 327 326 325 325 327 321 323 322 327 328 325 323 320 319
340 339 337 336 335 335 334 333 330 327 325 325 328 324 326 326 331 329 328 325 322 322
337 338 339 339 339 338 337 336 333 331 330 331 331 326 328 329 333 332 329 325 325 326
334 336 339 341 341 343 344 342 340 339 337 337 337 332 334 334 338 337 335 333 332 329
336 343 350 354 355 355 355 352 350 347 344 341 340 335 334 332 338 338 337 336 332 329
347 355 357 356 354 351 348 346 343 340 338 335 334 332 331 332 334 335 334 335 331 329
346 349 348 347 345 342 338 336 333 330 330 329 327 328 327 331 331 332 332 331 328 326
335 337 338 339 337 334 332 329 328 326 325 325 324 324 327 331 329 332 327 328 328 328
Wind_Speed_850mb
37 39 39 40 41 43 44 47 49 50 51 52 54 55 55 55 55 56 56 57 57 59
39 39 41 41 43 45 48 50 52 54 55 57 60 63 65 66 66 64 61 60 59 61
43 43 45 47 49 51 52 55 57 59 60 63 65 67 69 69 69 69 67 65 64 61
47 49 50 52 54 56 58 59 60 61 62 63 65 67 69 69 70 71 70 68 67 65
43 47 51 52 54 56 58 60 62 63 65 65 65 67 68 69 67 67 67 65 65 66
46 47 48 50 52 53 56 58 59 61 62 62 61 66 65 66 66 65 64 63 62 61
46 46 47 48 50 52 53 55 57 57 59 60 58 66 66 69 69 65 61 59 57 53
48 49 50 51 52 52 51 51 52 53 54 54 54 61 65 69 68 62 59 61 59 53
53 54 55 54 54 55 53 52 52 51 53 54 52 56 61 63 62 59 53 56 59 62
48 48 48 47 46 47 47 47 47 47 49 50 50 53 56 61 59 56 50 47 51 59
43 40 40 40 42 43 45 47 47 47 46 47 46 49 52 55 55 52 49 45 45 55
34 36 39 43 46 48 51 52 52 52 53 52 50 50 49 51 55 56 54 48 42 44
26 29 32 37 43 48 51 53 55 55 54 55 55 52 51 43 51 54 54 54 47 45
23 27 33 39 45 50 55 57 57 59 59 57 56 56 51 40 46 50 53 56 54 49
Wind_Direction_850mb
18 15 9 5 0 355 351 347 343 339 338 335 333 330 326 324 320 316 311 306 301 295
8 3 0 355 350 346 342 338 335 334 331 330 328 327 325 324 323 320 319 316 312 308
356 353 349 344 341 338 335 332 330 328 327 325 324 322 320 320 319 318 317 317 315 313
344 342 339 337 335 334 333 331 330 329 328 326 325 321 321 320 319 318 318 318 317 314
337 336 335 333 333 331 329 329 329 328 328 327 326 322 323 322 322 323 323 322 319 317
342 340 339 338 337 335 333 331 328 327 326 326 326 321 322 322 324 325 325 324 322 320
342 342 340 338 336 333 331 329 327 326 325 325 327 321 323 322 327 328 325 323 320 319
340 339 337 336 335 335 334 333 330 327 325 325 328 324 326 326 331 329 328 325 322 322
337 338 339 339 339 338 337 336 333 331 330 331 331 326 328 329 333 332 329 325 325 326
334 336 339 341 341 343 344 342 340 339 337 337 337 332 334 334 338 337 335 333 332 329
336 343 350 354 355 355 355 352 350 347 344 341 340 335 334 332 338 338 337 336 332 329
347 355 357 356 354 351 348 346 343 340 338 335 334 332 331 332 334 335 334 335 331 329
346 349 348 347 345 342 338 336 333 330 330 329 327 328 327 331 331 332 332 331 328 326
335 337 338 339 337 334 332 329 328 326 325 325 324 324 327 331 329 332 327 328 328 328